sat.trackr.live / text

‹ back to catalog

STARLINK-30102

NORAD 57434 · 2023-105E

PAYLOAD ACTIVE UNKNOWN

§ Identity

Operator
Country
US
Launch date
2023-07-24
Launch site
AFETR
Launch vehicle
Mass (kg)
RCS (m²)

Purposes: comms

External: N2YO · Heavens-Above · Gunter

§ Orbital elements

Epoch: 2026-09-20T14:56:16.746720Z

Period
94.27 min
Inclination
43.0007°
Eccentricity
0.0001238
Mean motion
15.27575093 rev/d
Perigee alt
482.2 km
Apogee alt
483.9 km
Semi-major
6,861.2 km
B*
3.0848e-5
RAAN
239.0280°
Arg perigee
271.8213°
Mean anomaly
88.2497°
Rev number
17,534

§ Raw data

STARLINK-301021 57434U 23105E   26263.62241605  .00000587  00000+0  30848-4 0  99952 57434  43.0007 239.0280 0001238 271.8213  88.2497 15.27575093175343

JSON: /api/v1/satellites/57434 · /tle

For live sub-satellite position, see the globe view (requires WebGL).

§ Visibility from observer

Set your observer location to see the next 7 days of passes ≥ 10°. The values pass through the URL so the page stays shareable.

No JS? Fill the form by hand. The geolocation button needs JavaScript.